Regional Weather Roundup
Issued by NWS

Home | Current Version | Previous Version | Graphics & Text | Print | Product List | Glossary Off
Versions: 1 2 3 4 5 6 7 8 9 10 11 12 13 14 15 16 17 18 19 20 21 22 23 24 25 26 27 28 29 30 31 32 33 34 35 36 37 38 39 40 41 42 43 44 45 46 47 48

000
ASUS43 KDMX 251607
RWRIA

WEATHER ROUNDUP FOR IOWA
NATIONAL WEATHER SERVICE DES MOINES IA
1100 AM CDT FRI JUL 25 2014

NOTE: "FAIR" INDICATES FEW OR NO CLOUDS BELOW 12,000 FEET WITH NO
SIGNIFICANT WEATHER AND/OR OBSTRUCTIONS TO VISIBILITY.

* - THESE STATIONS ARE NOT NWS STATIONS...THUS NOT UNDER NWS
QUALITY CONTROL.  THEY ALSO DO NOT REPORT WEATHER SUCH
AS PRECIPITATION OR FOG.

IAZ001>003-012>014-020>022-031>034-043>046-251700-
   NORTHWEST IOWA

CITY           SKY/WX    TMP DP  RH WIND       PRES   REMARKS
CARROLL *      CLOUDY    70  59  68 SE18G32   29.84F
CHEROKEE *     SUNNY     72  64  78 S23G30    29.78F
DENISON *      CLOUDY    70  61  73 SE17G26   29.80F
LE MARS *      SUNNY     73  64  73 SE15G22   29.77S
ORANGE CITY *  SUNNY     73  63  68 S17G23    29.78S
SHELDON *      SUNNY     72  64  78 S16G24    29.78R
SIOUX CITY     SUNNY     77  65  66 SE13G21   29.76F
SPENCER        SUNNY     72  61  68 S23G31    29.80R
STORM LAKE *   SUNNY     70  63  78 SE24G33   29.80F
$$

IAZ055>058-069>071-079>083-090>094-251700-
   SOUTHWEST IOWA

CITY           SKY/WX    TMP DP  RH WIND       PRES   REMARKS
ATLANTIC *     CLOUDY    72  61  68 SE13G22   29.84F
AUDUBON *      MOSUNNY   72  64  78 SE14G23   29.87F
CLARINDA *     SUNNY     77  70  78 SE8G15    29.84F
COUNCIL BLFS * SUNNY     79  72  78 SE15G22   29.79S HX  82
CRESTON *      PTSUNNY   70  61  73 SE16G24   29.88F
HARLAN  *      CLOUDY    72  63  73 SE13G24   29.86F
LAMONI         PTSUNNY   70  60  70 E10G21    29.90F
RED OAK *      SUNNY     79  70  73 SE12G18   29.82F HX  81
SHENANDOAH *   SUNNY     81  72  74 SE10      29.81F HX  84
$$

IAZ047>049-059>061-072>074-084-251700-
   CENTRAL IOWA

CITY           SKY/WX    TMP DP  RH WIND       PRES   REMARKS
AMES           CLOUDY    67  62  84 S17G28    29.88F
ANKENY *       CLOUDY    68  61  77 SE15G24   29.89F
CHARITON *     CLOUDY    68  61  77 SE18      29.93F
DES MOINES     CLOUDY    68  59  73 SE15      29.90F
GRINNELL*      PTSUNNY   66  64  94 S21G29    29.89F
KNOXVILLE *    CLOUDY    64  61  88 SE14      29.94F
MARSHALLTOWN   MOSUNNY   71  65  81 S14       29.88F
PELLA *        PTSUNNY   64  63  94 S17G24    29.93F
PERRY *        CLOUDY    68  59  73 SE15G22   29.87F
$$

IAZ004>006-015-016-023>025-035-036-251700-
   NORTH CENTRAL IOWA

CITY           SKY/WX    TMP DP  RH WIND       PRES   REMARKS
ALGONA *       SUNNY     75  64  69 S26G33    29.80S
CLARION *      SUNNY     73  64  73 S26G38    29.81R
ESTHERVILLE    MOSUNNY   72  63  73 S18G30    29.81R
FORT DODGE *   PTSUNNY   72  63  73 S23G30    29.81F
MASON CITY     PTSUNNY   73  66  78 S18       29.85R
FOREST CITY *  SUNNY     73  64  73 S15       29.83F
IOWA FALLS *     N/A     72  64  78 S24G35    29.82F
$$

IAZ007>011-017>019-026>030-037>042-050>054-066-251700-
   NORTHEAST IOWA

CITY           SKY/WX    TMP DP  RH WIND       PRES   REMARKS
CEDAR RAPIDS   CLOUDY    62  60  93 S21G29    29.91F
CHARLES CITY * PTSUNNY   68  64  88 S10G20    29.86R
CLINTON *      CLOUDY    63  59  88 W10       30.10R
DECORAH *      CLOUDY    64  61  88 CALM      29.90R
DUBUQUE        LGT RAIN  60  60 100 S24G35    29.84F FOG
MONTICELLO *   LGT RAIN  61  61 100 SE18G35   29.81F
OELWEIN *      CLOUDY    64  63  94 S24G37    29.83F
WATERLOO       CLOUDY    67  63  87 S30G38    29.82S
$$

IAZ064-065-067-068-078-251700-
   EAST CENTRAL IOWA

CITY           SKY/WX    TMP DP  RH WIND       PRES   REMARKS
DAVENPORT      RAIN      62  60  93 W10       30.09R FOG
IOWA CITY      LGT RAIN  62  62 100 S18G25    29.95F
MT. PLEASANT * RAIN      63  61  94 SW6       30.08R
MUSCATINE *    RAIN      63  61  94 S7        30.06S
QUAD CITIES    LGT RAIN  63  59  87 W10       30.08R
$$

IAZ062-063-075>077-085>089-095>099-251700-
   SOUTHEAST IOWA

CITY           SKY/WX    TMP DP  RH WIND       PRES   REMARKS
BURLINGTON     LGT RAIN  62  61  96 VRB5      30.06R
FAIRFIELD *    LGT RAIN  61  59  94 SE8       30.03R
FORT MADISON * LGT RAIN  64  63  94 SW13G20   30.05R
KEOKUK *       RAIN      63  61  94 S8G15     30.04F
OSKALOOSA *    LGT RAIN  63  61  94 S18G26    29.97F
CENTERVILLE *  CLOUDY    63  63 100 E12       29.99R
OTTUMWA        LGT RAIN  62  60  93 SE14      30.00R
WASHINGTON *   LGT RAIN  63  63 100 SE13      30.00F
$$

ABBREVIATIONS USED IN REMARKS
   TC - TEMPERATURES IN CELSIUS
  WCI - WIND CHILL INDEX
   HX - HEAT INDEX
  VSB - VISIBILITY
$$



USA.gov is the U.S. government's official web portal to all federal, state and local government web resources and services.